This is the latest recevied weather packets stored in our database for station/object NT9G. If no packets are shown the sender has not sent any weather packets the latest 1 day(s).
| Time | Temp. | Humidity | Pressure | Rain* | Wind** | Luminosity | Snow |
|---|---|---|---|---|---|---|---|
| 1778029281 | 12.22° C | 40% | 1010.2 hPa | 0.25 mm | 0 m/s | - | - |
| 1778028982 | 12.22° C | 39% | 1010.2 hPa | 0.25 mm | 0 m/s | - | - |
| 1778028683 | 12.22° C | 39% | 1010.1 hPa | 0.25 mm | 0 m/s | - | - |
| 1778020571 | 13.89° C | 35% | 1010 hPa | 0.25 mm | 0 m/s | - | - |
| 1778020271 | 13.89° C | 37% | 1010.1 hPa | 0.25 mm | 0 m/s | - | - |
| 1778019970 | 13.89° C | 35% | 1010.1 hPa | 0.25 mm | 0 m/s | - | - |
| 1778019670 | 13.89° C | 36% | 1010.1 hPa | 0.25 mm | 0 m/s | - | - |
| 1778019370 | 13.89° C | 36% | 1010.2 hPa | 0.25 mm | 0 m/s | - | - |
| 1778019069 | 13.33° C | 36% | 1010.1 hPa | 0.25 mm | 0 m/s | - | - |
| 1778018769 | 13.33° C | 37% | 1010.2 hPa | 0.25 mm | 0 m/s | - | - |
| 1778018469 | 13.33° C | 36% | 1010.4 hPa | 0.25 mm | 0 m/s | - | - |
| 1778018169 | 13.89° C | 36% | 1010.4 hPa | 0.25 mm | 0 m/s | - | - |
| 1778017868 | 13.89° C | 36% | 1010.4 hPa | 0.25 mm | 0 m/s | - | - |
| 1778017568 | 13.89° C | 37% | 1010.4 hPa | 0.25 mm | 0 m/s | - | - |
| 1778017268 | 13.89° C | 38% | 1010.3 hPa | 0.25 mm | 0 m/s | - | - |
| 1778016967 | 13.33° C | 37% | 1010.3 hPa | 0.25 mm | 0 m/s | - | - |
| 1778016667 | 13.89° C | 37% | 1010.5 hPa | 0.25 mm | 0 m/s | - | - |
| 1778016367 | 13.89° C | 37% | 1010.4 hPa | 0.25 mm | 0 m/s | - | - |
| 1778016067 | 13.89° C | 36% | 1010.4 hPa | 0.25 mm | 0 m/s | - | - |
| 1778015766 | 13.89° C | 36% | 1010.4 hPa | 0.25 mm | 0 m/s | - | - |
| 1778015466 | 13.33° C | 38% | 1010.4 hPa | 0.25 mm | 0 m/s | - | - |
| 1778015166 | 13.33° C | 38% | 1010.5 hPa | 0.25 mm | 0 m/s | - | - |
| 1778014865 | 13.33° C | 37% | 1010.7 hPa | 0.25 mm | 0 m/s | - | - |
| 1778014565 | 13.33° C | 35% | 1010.8 hPa | 0.25 mm | 0 m/s | - | - |
| 1778013965 | 13.33° C | 36% | 1011 hPa | 0.25 mm | 0 m/s | - | - |
* Rain since midnight (hover to see other rain measurements)
** Current wind speed in m/s (hover to see current wind gust speed)